Temp
67 67 67 71 77 57 68 69 61 65 75 70 61 61 62 61 59 54 66 63 68 75 78 82 84 82 82 85 87 88 87 88 86 86 87 87 88 87 87 86 86 85 86 85 86 86 86 86 86 85 84 84 83 83 83 82 82 82 82 81 82 82 82
67 69 68 68 72 77 70 61 68 76 78 74 64 53 57 55 51 55 62 60 63 64 60 80 81 80 82 82 84 87 87 87 85 86 87 87 88 88 88 87 87 87 86 86 87 88 88 87 87 86 84 85 85 84 84 82 82 81 82 82 83 82 82
65 69 71 70 74 77 72 69 80 65 56 55 62 59 48 49 48 53 59 63 64 67 66 74 76 79 81 82 82 84 86 86 85 87 87 87 88 88 87 88 87 86 87 87 86 87 89 88 87 87 86 86 86 86 86 86 83 84 84 85 84 83 83
62 65 68 59 66 74 77 79 72 77 71 62 57 59 60 58 51 51 54 60 57 70 72 77 77 80 82 85 84 83 86 86 86 87 88 88 87 87 87 88 88 88 88 88 89 89 89 89 88 88 88 88 88 87 86 86 86 85 84 84 83 83 84
62 58 64 63 67 65 66 66 66 69 68 73 71 68 61 57 53 53 53 52 60 71 78 79 80 81 83 85 84 83 86 88 89 88 88 88 87 87 88 89 89 89 88 90 90 90 90 91 90 89 89 88 88 89 87 87 85 85 85 85 85 83 84
57 61 64 62 61 61 61 64 65 68 64 60 55 53 68 64 58 50 53 51 64 76 81 81 82 85 86 86 86 86 87 90 88 88 89 88 87 87 88 90 91 90 89 89 91 90 91 91 90 90 90 90 89 88 88 88 88 87 86 86 84 83 84
55 62 64 66 64 63 63 63 63 64 66 68 60 49 57 64 64 66 62 57 60 79 79 78 83 87 89 88 88 87 89 90 91 89 91 89 88 88 90 90 91 91 90 89 90 88 88 89 88 89 89 89 89 89 89 88 87 87 88 87 87 84 84
58 63 64 62 64 64 60 60 61 62 60 58 58 60 63 60 62 58 59 53 62 78 80 79 81 81 83 83 84 84 90 92 91 90 90 88 87 87 90 90 92 91 90 89 87 86 86 87 87 88 88 88 89 89 89 89 88 88 88 88 87 85 84
52 57 59 60 63 63 57 56 58 58 59 60 61 61 62 57 62 63 58 51 61 76 78 81 82 80 81 84 87 85 83 85 88 89 88 88 86 86 88 88 89 89 89 87 85 85 84 85 88 87 87 88 89 88 89 89 89 89 89 88 87 86 86
38 38 41 47 51 53 55 55 55 57 56 56 58 57 59 52 61 63 60 60 69 77 75 79 82 84 81 83 85 85 85 84 85 85 86 85 85 84 85 86 87 87 86 86 85 84 84 87 88 86 85 87 89 88 88 90 89 89 88 89 88 87 87
45 45 43 47 50 52 49 53 55 55 57 57 56 55 54 56 60 59 64 66 68 72 75 75 81 82 82 84 84 83 84 84 84 82 83 85 84 84 86 85 86 85 84 84 84 84 86 88 89 88 88 87 88 86 87 89 89 89 87 87 86 86 87
47 51 49 52 52 49 52 51 52 56 55 55 53 53 55 56 55 53 65 66 66 70 76 78 80 83 81 81 83 86 85 84 86 86 82 83 86 86 85 85 84 84 83 84 84 84 86 88 88 88 89 88 87 86 87 88 89 89 88 87 86 85 85
51 52 52 53 51 51 52 52 53 52 55 55 52 53 56 56 53 54 60 63 64 71 77 81 81 82 83 88 87 85 84 85 85 83 84 86 88 87 86 83 83 83 84 83 83 84 85 87 87 87 88 88 87 86 87 87 89 88 87 86 85 85 84
48 50 50 52 51 51 52 52 53 55 55 55 56 56 59 58 55 57 60 62 63 69 74 75 77 77 78 80 80 81 82 83 80 81 82 86 88 89 88 85 85 84 84 84 83 83 83 85 85 88 87 86 86 86 87 88 87 88 87 85 84 84 83
45 49 51 52 52 52 49 53 55 56 57 57 58 59 60 60 59 61 61 60 60 70 70 70 74 75 75 76 78 78 75 76 78 79 82 84 86 89 89 87 86 85 85 85 84 83 83 84 85 86 85 86 87 89 87 88 86 88 88 84 84 83 83
42 50 50 51 52 52 51 51 53 55 56 54 56 56 58 56 56 59 60 58 62 68 69 71 73 73 72 72 72 74 74 76 76 76 78 80 82 85 88 89 88 85 86 85 84 84 85 86 86 86 84 87 87 88 87 87 89 89 87 86 84 83 84
39 49 48 49 50 51 49 50 55 57 58 58 59 59 59 57 58 57 59 64 62 63 68 68 71 72 71 71 71 71 73 73 75 75 76 78 81 84 84 86 86 88 88 87 84 86 87 87 87 88 87 88 85 87 85 87 88 88 86 86 84 83 84
40 45 47 49 47 39 44 58 64 63 58 58 56 55 55 57 58 56 58 59 63 65 65 65 68 70 69 70 73 74 72 71 72 75 77 78 80 84 87 88 89 88 87 87 87 87 86 88 90 89 88 88 87 88 87 86 86 85 84 84 83 83 83
37 45 46 42 36 42 54 59 61 61 62 60 59 57 55 56 57 57 57 59 59 61 63 66 69 71 73 75 74 75 75 73 72 73 76 77 78 81 84 86 88 86 86 86 86 85 88 90 89 89 88 89 88 87 86 85 86 84 84 84 83 83 83
42 39 41 32 39 52 55 59 60 62 62 60 61 56 54 54 55 54 53 56 59 60 61 65 70 73 76 77 76 74 75 74 73 73 75 78 79 80 85 85 85 84 87 86 87 86 89 90 90 89 89 90 89 87 87 86 85 84 84 83 83 83 82
33 39 41 43 51 50 53 53 53 55 52 54 56 52 51 53 53 53 52 54 56 58 60 64 71 75 77 73 74 75 73 73 74 75 76 79 79 80 84 88 87 86 87 87 89 87 88 89 90 90 90 90 89 87 86 86 84 84 83 82 83 83 83
42 36 37 39 42 37 44 52 57 59 60 59 58 56 52 53 53 54 52 52 54 56 58 63 70 74 72 70 70 71 72 73 73 76 78 81 81 82 84 87 87 86 87 88 87 88 87 88 89 88 89 89 86 84 84 84 84 84 84 83 84 83 83
39 38 36 35 36 43 48 51 55 60 61 59 59 56 49 50 52 54 52 52 53 54 54 61 72 72 67 64 66 68 69 71 73 73 76 79 81 82 83 86 86 87 85 86 87 86 86 86 86 86 87 87 86 84 84 84 85 85 84 84 85 84 85
37 39 37 37 44 40 48 53 57 60 61 59 56 45 45 47 52 53 52 51 53 53 54 61 65 62 62 61 63 67 67 70 73 72 73 75 78 80 83 85 87 85 84 84 85 85 86 85 86 86 87 87 86 84 84 87 86 85 85 85 86 86 87
37 37 40 45 46 51 52 53 57 59 60 55 45 43 45 51 51 52 51 52 52 53 52 57 56 58 60 61 64 66 68 70 71 73 75 76 78 79 80 81 82 84 84 85 85 86 85 84 86 87 87 86 84 84 84 84 84 86 87 86 86 86 86
34 39 39 40 46 50 52 55 56 55 50 43 43 48 54 51 50 51 52 51 52 52 53 54 55 59 63 63 64 65 66 67 69 71 74 76 78 80 80 79 80 83 86 84 85 86 85 86 87 87 86 84 83 83 83 83 85 88 87 86 86 86 85
40 41 39 38 34 47 53 53 55 52 44 43 49 53 54 54 50 51 52 52 52 52 52 56 56 58 59 61 61 62 64 66 67 69 70 71 73 75 77 78 80 81 81 81 84 86 88 89 88 87 87 83 83 83 82 83 87 88 87 87 86 86 85
36 38 37 35 41 46 51 50 41 45 45 49 51 52 50 52 51 50 50 52 53 53 52 54 55 56 57 59 60 61 62 64 66 68 69 70 71 73 77 79 79 80 78 80 82 84 87 87 87 87 86 83 83 82 82 85 87 87 86 86 86 85 85
39 38 41 45 47 48 50 50 48 48 50 52 53 53 51 50 50 52 51 51 53 55 54 55 55 54 58 58 59 60 60 62 63 65 66 67 68 70 72 75 78 80 79 78 80 80 82 83 85 85 86 84 82 82 83 84 85 85 85 85 85 84 85
46 48 48 51 49 49 49 51 52 50 50 53 54 53 51 52 51 51 50 52 54 56 56 54 55 56 58 59 58 60 62 62 63 64 66 67 69 70 71 73 74 77 80 79 78 78 79 81 82 83 85 85 82 81 82 83 85 85 85 84 84 84 85
39 36 47 46 46 50 51 49 51 52 51 51 53 53 53 52 52 53 54 53 54 56 56 57 55 57 59 59 59 60 62 63 63 64 64 65 66 67 68 71 73 74 76 77 76 76 76 78 81 83 82 83 82 81 82 84 84 84 84 83 83 84 84
39 39 45 46 49 51 52 50 49 49 50 51 52 53 53 53 54 55 55 55 55 57 56 57 56 56 59 58 58 59 61 61 62 63 63 64 64 66 68 70 73 74 74 74 75 75 75 77 78 79 79 80 81 83 84 84 83 82 81 82 83 83 84
41 46 47 47 48 51 50 52 52 51 51 51 52 53 53 54 54 55 55 57 55 57 57 59 58 57 57 59 59 60 61 61 61 62 63 64 63 64 65 68 72 73 74 74 74 75 75 77 77 77 78 79 80 81 83 83 83 82 81 81 82 82 83
36 38 41 45 38 39 47 50 51 51 52 52 52 53 52 53 52 53 52 54 56 57 59 61 60 57 56 59 59 60 61 60 61 62 63 63 63 64 65 68 70 73 74 75 75 75 75 76 77 77 77 78 79 81 82 83 84 82 81 81 81 81 82
34 42 45 46 45 44 47 49 51 52 52 53 51 50 50 51 53 54 52 52 53 55 58 62 60 58 57 59 59 59 60 60 62 62 62 62 62 63 65 65 67 70 72 74 74 74 75 76 77 77 76 77 78 79 80 81 82 83 83 82 81 81 81
44 46 45 46 44 42 45 50 51 52 54 53 52 52 52 51 51 52 53 53 52 54 57 60 60 59 59 60 60 59 60 61 62 62 62 64 64 64 65 65 66 68 69 71 72 73 74 75 75 76 76 76 76 78 79 80 81 82 83 83 82 82 83
40 45 46 47 47 48 50 50 52 54 55 55 52 52 51 51 51 53 52 53 55 55 55 57 61 61 59 60 60 59 59 62 64 63 62 65 66 64 64 65 65 66 68 70 72 73 74 74 75 75 75 75 76 77 78 79 80 81 81 82 82 81 82
MSLP
1008.62 1008.78 1008.74 1007.74 1006.50 1011.98 1008.38 1009.10 1010.78 1009.50 1007.70 1009.54 1011.54 1011.86 1011.62 1011.74 1012.46 1012.26 1009.14 1010.30 1007.90 1006.26 1005.14 1003.98 1003.54 1004.30 1004.22 1003.38 1003.14 1003.18 1003.10 1003.10 1003.58 1004.02 1003.94 1003.90 1003.94 1004.14 1004.42 1004.66 1004.90 1005.22 1005.66 1006.06 1006.26 1006.62 1007.06 1007.58 1007.98 1008.14 1008.46 1008.82 1009.42 1010.06 1010.66 1011.30 1011.66 1011.98 1012.38 1012.70 1013.10 1013.42 1013.78
1008.62 1008.22 1008.30 1008.42 1007.42 1006.30 1008.34 1010.34 1008.34 1007.26 1006.98 1007.98 1010.78 1013.50 1012.50 1013.22 1013.82 1011.58 1010.02 1010.46 1009.14 1009.54 1009.54 1003.50 1004.10 1004.66 1004.06 1004.02 1003.62 1003.02 1002.74 1002.94 1003.66 1003.46 1003.34 1003.26 1003.34 1003.30 1003.18 1003.34 1003.66 1004.14 1004.58 1004.98 1005.38 1005.74 1006.10 1006.50 1006.98 1007.66 1008.06 1008.22 1008.74 1009.26 1009.90 1010.74 1011.26 1011.74 1011.90 1012.26 1012.66 1012.98 1013.42
1008.90 1008.06 1007.62 1007.74 1006.82 1006.10 1007.34 1007.90 1005.14 1009.58 1012.26 1012.94 1010.30 1012.06 1014.34 1014.30 1013.94 1012.26 1010.54 1009.38 1008.38 1007.42 1007.38 1005.38 1004.90 1004.50 1003.94 1003.58 1003.50 1003.14 1003.02 1003.06 1003.10 1002.86 1002.70 1002.54 1002.54 1002.86 1003.26 1003.46 1003.86 1004.18 1004.42 1004.78 1005.06 1005.18 1005.18 1005.74 1006.38 1006.86 1007.34 1007.78 1008.26 1008.78 1009.18 1009.74 1010.42 1010.74 1011.22 1011.62 1012.10 1012.50 1012.82
1009.50 1008.74 1008.10 1009.82 1008.26 1006.50 1005.78 1005.50 1007.18 1005.86 1007.82 1009.66 1011.58 1010.46 1009.98 1011.02 1012.42 1012.90 1011.34 1010.38 1009.78 1006.06 1005.50 1004.38 1004.30 1003.46 1003.02 1002.70 1002.86 1003.14 1002.38 1002.42 1002.34 1002.10 1001.98 1002.26 1002.62 1002.66 1002.62 1002.78 1002.98 1003.14 1003.38 1003.66 1003.94 1004.34 1004.86 1005.26 1005.74 1006.18 1006.74 1007.34 1007.86 1008.18 1008.78 1009.30 1009.78 1010.30 1010.82 1011.30 1011.66 1012.14 1012.34
1009.46 1009.78 1008.22 1008.54 1007.66 1008.02 1008.26 1008.62 1008.30 1007.66 1007.74 1006.30 1007.26 1008.02 1009.54 1010.62 1011.58 1011.46 1011.42 1011.94 1008.50 1005.30 1003.54 1003.66 1003.30 1002.82 1002.58 1002.02 1002.10 1001.94 1001.82 1001.50 1001.30 1001.18 1001.26 1001.50 1001.74 1001.94 1001.90 1001.98 1002.22 1002.42 1002.74 1002.90 1003.18 1003.58 1004.02 1004.50 1005.10 1005.74 1006.30 1006.78 1007.22 1007.78 1008.38 1008.74 1009.42 1009.90 1010.38 1010.66 1011.10 1011.58 1011.94
1009.82 1008.42 1008.54 1009.02 1009.34 1009.62 1009.66 1008.78 1008.10 1007.10 1008.46 1009.90 1011.06 1011.22 1007.58 1008.34 1010.06 1011.06 1011.58 1011.06 1007.10 1003.54 1002.14 1002.30 1002.18 1001.54 1001.46 1001.34 1001.30 1001.22 1000.90 1000.58 1000.54 1000.54 1000.58 1000.70 1001.18 1001.10 1001.10 1001.18 1001.34 1001.62 1002.02 1002.34 1002.74 1003.34 1003.90 1004.50 1004.94 1005.26 1005.50 1006.14 1006.78 1007.10 1007.38 1008.02 1008.66 1009.18 1009.62 1010.14 1010.54 1010.98 1011.42
1010.34 1008.70 1008.38 1008.30 1008.90 1009.18 1009.22 1009.30 1008.94 1008.82 1007.58 1006.86 1008.98 1011.62 1009.22 1008.14 1007.66 1007.54 1008.26 1009.78 1007.30 1002.54 1002.02 1002.46 1001.54 1000.62 1000.30 1000.26 1000.58 1000.86 1000.30 1000.02 999.78 999.82 999.70 999.86 999.98 1000.22 1000.34 1000.54 1000.66 1000.90 1001.34 1001.82 1002.42 1002.98 1003.38 1003.70 1004.02 1004.42 1005.06 1005.54 1005.90 1006.42 1006.94 1007.38 1007.94 1008.42 1008.70 1009.22 1009.74 1010.34 1010.90
1010.10 1008.90 1008.50 1008.98 1008.58 1008.82 1009.70 1009.86 1009.74 1009.42 1009.54 1010.26 1009.66 1008.78 1007.90 1008.18 1007.62 1009.30 1009.10 1010.26 1006.98 1002.82 1001.46 1001.78 1001.90 1001.50 1001.22 1001.14 1001.18 1001.22 1000.02 999.42 999.30 999.42 999.58 999.78 1000.10 1000.06 1000.02 1000.06 1000.30 1000.70 1001.26 1001.90 1002.58 1003.22 1003.54 1003.90 1004.34 1004.62 1004.78 1005.02 1005.50 1005.94 1006.30 1006.74 1007.34 1007.78 1008.30 1008.74 1009.22 1009.82 1010.38
1010.46 1009.38 1009.22 1009.06 1008.86 1008.74 1010.22 1010.54 1010.46 1010.62 1010.50 1010.02 1009.46 1009.18 1008.66 1009.42 1006.98 1007.14 1008.82 1010.18 1007.86 1002.98 1001.74 1001.34 1001.18 1001.82 1001.90 1001.18 1000.54 1000.74 1001.34 1000.62 1000.02 999.70 999.74 999.66 999.78 1000.06 1000.22 1000.42 1000.54 1000.86 1001.26 1001.74 1002.06 1002.26 1002.74 1003.26 1003.50 1003.82 1004.30 1004.70 1005.02 1005.46 1005.78 1006.22 1006.62 1007.10 1007.66 1008.10 1008.70 1009.26 1009.82
1012.50 1012.70 1011.98 1010.30 1010.30 1010.78 1010.98 1011.02 1010.90 1010.70 1010.90 1010.90 1009.86 1009.46 1008.58 1009.98 1006.98 1006.58 1007.34 1007.42 1004.86 1002.58 1002.30 1002.14 1001.58 1000.94 1001.34 1000.82 1000.50 1000.46 1000.38 1000.62 1000.54 1000.30 1000.10 1000.18 1000.26 1000.42 1000.26 1000.34 1000.70 1000.94 1000.86 1001.02 1001.58 1002.06 1002.46 1002.70 1002.94 1003.46 1003.90 1004.14 1004.50 1004.90 1005.22 1005.50 1006.22 1006.78 1007.22 1007.58 1008.10 1008.78 1009.30
1011.62 1012.10 1013.74 1013.62 1012.74 1011.78 1011.74 1010.70 1010.82 1010.74 1010.70 1010.70 1010.86 1010.90 1010.50 1008.98 1007.42 1007.34 1005.78 1005.78 1005.10 1004.02 1003.30 1003.26 1001.98 1001.14 1001.10 1000.58 1000.38 1000.50 1000.38 1000.22 1000.14 1000.14 1000.06 999.94 1000.10 1000.22 1000.26 1000.30 1000.18 1000.30 1000.86 1001.22 1001.26 1001.58 1001.82 1001.98 1002.30 1002.70 1003.22 1003.74 1004.14 1004.58 1004.98 1005.26 1005.58 1006.14 1006.66 1007.18 1007.78 1008.34 1008.82
1012.90 1011.90 1012.50 1012.18 1012.22 1012.26 1011.46 1011.70 1010.90 1010.30 1010.70 1011.02 1011.42 1010.98 1009.26 1009.54 1009.50 1008.70 1005.62 1005.14 1005.82 1004.42 1003.18 1002.58 1001.74 1000.86 1000.78 1000.70 1000.14 999.78 999.78 999.70 999.54 999.26 999.18 999.46 999.50 999.58 999.82 1000.22 1000.54 1000.78 1000.66 1000.70 1001.02 1001.30 1001.50 1001.78 1001.90 1002.30 1002.66 1003.02 1003.54 1004.02 1004.54 1004.86 1005.26 1005.82 1006.26 1006.82 1007.38 1007.90 1008.42
1012.38 1012.10 1012.14 1012.02 1012.10 1011.94 1011.62 1011.34 1011.06 1010.90 1010.34 1010.66 1011.26 1010.54 1010.02 1009.90 1010.18 1008.82 1006.94 1005.82 1005.98 1004.50 1003.10 1001.98 1001.42 1000.94 1000.42 999.54 999.58 999.82 999.82 999.66 999.50 999.82 999.94 999.66 999.30 999.18 999.62 999.90 999.94 1000.10 1000.38 1000.54 1000.78 1001.02 1001.14 1001.34 1001.78 1002.06 1002.46 1002.90 1003.30 1003.78 1004.22 1004.66 1004.98 1005.30 1005.66 1006.38 1007.02 1007.58 1008.10
1012.82 1012.22 1012.30 1012.18 1012.06 1011.50 1011.38 1011.10 1010.66 1010.18 1010.06 1009.98 1009.82 1009.70 1009.06 1009.10 1009.50 1009.06 1007.82 1006.70 1006.78 1005.66 1003.94 1003.38 1002.54 1002.02 1001.74 1001.02 1000.54 1000.46 1000.38 1000.34 1000.54 1000.42 1000.30 999.86 999.26 998.90 998.98 999.30 999.38 999.46 999.46 999.70 1000.06 1000.42 1000.86 1001.14 1001.38 1001.74 1002.18 1002.54 1002.82 1003.26 1003.78 1004.06 1004.50 1004.78 1005.34 1006.02 1006.58 1007.14 1007.70
1012.94 1012.10 1011.82 1011.66 1011.38 1011.14 1011.30 1010.26 1009.86 1009.66 1009.38 1009.06 1008.86 1008.74 1008.18 1008.02 1008.42 1007.98 1007.74 1007.66 1007.62 1004.98 1004.62 1004.54 1003.18 1002.66 1002.38 1001.98 1001.50 1001.54 1001.66 1001.50 1001.18 1000.94 1000.42 999.78 999.26 998.50 998.18 998.18 998.58 998.58 998.78 999.06 999.58 1000.18 1000.54 1000.70 1000.90 1001.14 1001.42 1001.70 1002.18 1002.74 1003.22 1003.62 1004.10 1004.34 1004.78 1005.66 1006.26 1006.70 1007.14
1012.78 1011.30 1011.42 1011.02 1010.86 1010.78 1010.70 1010.18 1009.54 1009.26 1008.98 1009.22 1008.58 1008.78 1008.18 1008.78 1008.46 1007.78 1007.58 1008.06 1006.74 1005.46 1004.98 1004.30 1003.62 1003.30 1003.18 1003.18 1002.98 1002.50 1002.10 1001.74 1001.66 1001.50 1000.86 1000.10 999.42 998.74 998.10 997.62 997.66 998.06 998.34 998.82 999.34 999.62 999.78 999.98 1000.38 1000.70 1001.22 1001.54 1002.06 1002.46 1002.66 1003.10 1003.46 1003.86 1004.54 1005.22 1005.82 1006.26 1006.58
1013.18 1011.30 1011.62 1011.46 1011.10 1010.30 1009.86 1008.90 1008.30 1007.98 1007.82 1007.90 1007.90 1007.90 1007.82 1008.50 1008.50 1008.46 1007.18 1005.34 1006.70 1006.70 1005.30 1005.06 1003.98 1003.54 1003.46 1003.34 1003.18 1003.06 1002.54 1002.14 1001.78 1001.46 1000.86 1000.14 999.22 998.34 997.78 997.50 997.38 997.46 997.62 997.86 998.26 998.46 998.78 999.18 999.62 999.78 1000.18 1000.90 1001.46 1001.58 1002.14 1002.46 1002.98 1003.70 1004.26 1004.74 1005.42 1006.02 1006.38
1012.82 1011.98 1011.66 1011.06 1010.86 1011.54 1009.22 1006.70 1005.62 1006.22 1007.42 1007.66 1008.06 1008.70 1008.90 1008.66 1008.38 1008.82 1008.22 1007.74 1006.50 1006.10 1005.86 1005.50 1004.66 1004.02 1003.90 1003.26 1002.58 1002.14 1002.42 1002.34 1001.78 1000.94 1000.18 999.50 998.74 997.78 997.06 996.70 996.62 996.70 996.94 997.10 997.38 997.62 997.82 997.98 998.26 998.82 999.38 999.98 1000.58 1001.10 1001.78 1002.38 1002.90 1003.50 1004.10 1004.66 1005.22 1005.78 1006.18
1013.94 1012.10 1011.58 1011.38 1011.94 1009.62 1007.90 1007.10 1006.94 1006.78 1006.70 1007.18 1007.30 1008.14 1009.02 1008.86 1008.54 1008.46 1008.10 1007.50 1007.38 1006.78 1006.10 1005.26 1004.34 1003.34 1002.74 1002.14 1002.26 1002.02 1001.62 1001.66 1001.46 1000.90 999.94 999.22 998.54 997.70 996.90 996.58 996.18 996.30 996.58 996.98 997.22 997.66 997.94 998.30 998.82 999.34 999.94 1000.34 1000.82 1001.26 1001.62 1002.34 1002.78 1003.46 1003.94 1004.46 1005.06 1005.50 1005.90
1013.98 1013.22 1011.62 1012.50 1009.82 1008.22 1008.10 1007.38 1007.38 1006.94 1006.78 1007.14 1006.86 1008.10 1008.78 1009.18 1009.30 1009.42 1009.14 1008.34 1007.50 1006.82 1006.10 1004.94 1003.50 1002.82 1002.18 1001.74 1001.50 1001.78 1001.38 1001.18 1001.10 1000.70 999.74 998.78 998.26 997.78 996.54 996.26 996.10 996.18 996.22 996.50 996.90 997.30 997.22 997.90 998.42 998.78 999.50 999.70 1000.38 1001.02 1001.38 1002.14 1002.70 1003.22 1003.78 1004.34 1004.82 1005.22 1005.66
1014.98 1012.14 1010.94 1009.46 1008.50 1008.46 1008.02 1008.22 1008.58 1008.70 1008.82 1008.54 1007.42 1008.06 1009.10 1009.62 1009.62 1009.70 1009.62 1008.66 1007.74 1006.90 1005.94 1004.74 1003.02 1001.78 1001.58 1002.10 1001.74 1001.42 1001.42 1001.10 1000.58 1000.14 999.26 998.30 997.78 997.26 996.34 995.58 995.70 995.82 995.94 996.38 996.62 997.18 997.54 997.66 998.10 998.66 999.02 999.46 1000.18 1000.94 1001.58 1002.02 1002.54 1003.10 1003.66 1004.26 1004.54 1004.78 1005.06
1013.70 1013.46 1011.94 1010.42 1009.86 1010.46 1009.26 1008.82 1008.34 1008.22 1008.14 1008.06 1008.06 1007.78 1008.62 1009.38 1009.62 1009.62 1009.54 1009.06 1008.14 1007.30 1006.30 1004.74 1002.90 1001.74 1002.30 1002.78 1002.58 1001.94 1001.50 1001.02 1000.66 999.62 998.82 997.86 997.18 996.66 996.06 995.34 995.42 995.66 995.86 996.14 996.46 996.94 997.62 997.94 998.10 998.42 998.82 999.42 1000.06 1000.86 1001.50 1001.90 1002.46 1003.02 1003.42 1003.78 1003.94 1004.30 1004.66
1013.62 1013.34 1012.14 1010.34 1010.06 1009.06 1009.22 1009.14 1008.70 1008.06 1007.94 1008.02 1007.82 1007.90 1008.50 1009.98 1009.82 1009.66 1009.70 1009.14 1008.34 1007.90 1007.22 1005.18 1002.34 1001.98 1003.38 1003.86 1003.30 1002.58 1001.98 1001.34 1000.50 1000.06 999.06 998.10 997.38 996.66 996.22 995.74 995.70 995.70 995.94 996.06 996.42 996.90 997.46 998.22 998.26 998.42 998.86 999.38 1000.14 1000.98 1001.30 1001.70 1002.10 1002.70 1003.02 1003.22 1003.46 1003.82 1004.10
1014.54 1012.82 1011.70 1010.42 1009.26 1010.02 1009.38 1008.94 1008.50 1008.02 1007.78 1008.18 1008.46 1009.38 1008.78 1010.50 1009.82 1009.86 1009.78 1009.42 1008.78 1008.10 1007.30 1005.26 1004.06 1004.66 1004.90 1004.82 1004.14 1002.94 1002.26 1001.38 1000.46 1000.18 999.54 998.62 997.78 997.10 996.30 995.86 995.54 995.66 995.86 996.30 996.78 997.14 997.50 997.82 997.90 998.42 998.82 999.42 1000.10 1000.74 1001.14 1001.38 1001.98 1002.26 1002.38 1002.42 1002.54 1002.86 1003.34
1013.70 1013.30 1011.30 1009.66 1009.02 1008.82 1009.18 1009.18 1008.58 1008.18 1007.82 1008.58 1009.30 1008.22 1009.66 1010.10 1009.98 1009.90 1009.98 1009.50 1009.14 1008.62 1007.94 1006.74 1006.18 1005.90 1005.54 1005.10 1004.10 1003.06 1002.34 1001.38 1000.98 1000.14 999.34 998.66 997.98 997.58 997.10 996.74 996.18 996.18 996.10 996.10 996.46 996.62 996.94 997.30 997.70 998.10 998.62 999.38 1000.10 1000.42 1000.82 1001.30 1001.54 1001.26 1001.30 1001.66 1002.10 1002.54 1002.98
1014.10 1012.38 1011.22 1009.98 1008.98 1009.26 1009.58 1008.90 1008.70 1008.82 1008.98 1009.02 1008.50 1009.82 1009.86 1010.02 1010.06 1010.10 1009.86 1009.58 1009.22 1008.90 1008.30 1007.78 1007.10 1006.18 1005.22 1004.58 1004.18 1003.38 1002.42 1002.18 1001.46 1000.66 999.78 999.02 998.22 997.62 997.34 997.10 996.86 996.70 996.46 996.50 996.50 996.66 996.86 997.18 997.42 997.86 998.38 999.22 999.74 1000.22 1000.62 1000.82 1000.46 1000.34 1000.86 1001.30 1001.82 1002.38 1002.86
1012.90 1011.70 1011.14 1010.58 1010.86 1009.62 1009.86 1009.22 1008.42 1009.38 1009.46 1010.18 1010.34 1009.62 1009.86 1009.82 1010.22 1010.30 1009.86 1009.54 1009.38 1009.06 1008.66 1007.86 1007.50 1006.70 1005.74 1005.18 1004.38 1003.26 1002.90 1002.34 1001.94 1001.30 1000.58 999.98 999.42 998.94 998.30 997.94 997.54 997.30 997.42 997.30 997.10 996.98 996.90 997.02 997.26 997.62 998.22 999.14 999.58 999.86 1000.22 999.94 999.86 1000.18 1000.50 1001.06 1001.62 1002.14 1002.66
1012.10 1011.42 1010.82 1010.98 1010.98 1011.02 1010.50 1010.14 1011.06 1011.54 1011.94 1011.58 1010.86 1010.34 1010.26 1009.98 1010.26 1010.54 1010.06 1009.50 1009.30 1009.10 1008.94 1008.30 1007.66 1007.02 1006.26 1005.10 1003.94 1003.58 1003.10 1002.66 1002.14 1001.46 1000.90 1000.34 999.78 999.46 998.94 998.50 998.22 997.90 997.98 997.78 997.70 997.42 997.18 997.26 997.38 997.62 998.14 998.98 999.34 999.66 999.82 999.50 999.70 999.98 1000.50 1000.98 1001.46 1002.06 1002.50
1012.86 1011.30 1011.42 1011.74 1011.50 1011.46 1011.50 1011.14 1011.70 1011.82 1011.62 1011.50 1010.98 1010.78 1010.58 1010.46 1010.46 1010.42 1010.26 1009.74 1009.14 1008.90 1008.74 1008.30 1007.94 1007.26 1006.34 1005.58 1005.02 1004.62 1004.02 1003.38 1002.86 1002.30 1001.86 1001.38 1000.90 1000.42 1000.06 999.46 998.82 998.38 998.42 998.42 998.26 998.14 997.82 997.66 997.62 997.82 998.06 998.78 999.30 999.74 999.54 999.38 999.86 1000.14 1000.54 1000.90 1001.42 1001.90 1002.22
1012.82 1011.90 1011.70 1011.22 1011.38 1011.42 1011.50 1011.42 1011.34 1011.62 1011.74 1011.34 1011.02 1010.86 1010.62 1010.34 1010.74 1010.46 1010.38 1009.86 1009.26 1008.82 1008.46 1008.30 1007.74 1007.42 1006.58 1005.82 1005.26 1004.62 1003.98 1003.66 1003.14 1002.62 1002.06 1001.58 1001.10 1000.70 1000.34 999.94 999.50 999.18 998.78 998.66 998.70 998.86 998.70 998.38 998.30 998.26 998.42 998.70 999.54 999.78 999.58 999.66 999.70 1000.02 1000.42 1000.90 1001.38 1001.70 1001.90
1013.22 1012.22 1011.62 1011.90 1011.98 1011.38 1011.06 1011.50 1011.42 1011.46 1011.62 1011.58 1011.26 1010.98 1010.66 1010.66 1010.42 1010.14 1009.82 1009.82 1009.42 1008.90 1008.42 1008.34 1008.14 1007.50 1006.82 1006.22 1005.74 1005.18 1004.42 1003.94 1003.66 1003.30 1002.94 1002.46 1002.14 1001.70 1001.26 1000.74 1000.18 999.90 999.58 999.46 999.50 999.46 999.58 999.18 998.90 998.82 998.98 999.10 999.42 999.62 999.82 999.74 999.78 999.98 1000.38 1000.78 1001.18 1001.42 1001.74
1013.02 1012.30 1012.06 1012.26 1011.94 1011.06 1011.02 1011.30 1011.58 1011.42 1011.46 1011.34 1011.22 1011.06 1010.62 1010.30 1010.14 1009.82 1009.78 1009.58 1009.14 1008.70 1008.42 1008.14 1007.94 1007.58 1007.06 1006.62 1006.18 1005.54 1005.02 1004.66 1004.22 1003.82 1003.50 1003.14 1002.70 1002.14 1001.62 1001.18 1000.66 1000.38 1000.26 1000.30 1000.26 1000.14 1000.18 999.90 999.66 999.62 999.66 999.82 999.78 999.70 999.66 999.70 999.90 1000.22 1000.58 1000.82 1001.18 1001.42 1001.50
1013.42 1012.10 1011.90 1012.30 1011.82 1010.94 1011.14 1011.14 1010.94 1011.22 1011.26 1011.34 1011.14 1010.82 1010.54 1010.18 1010.02 1009.82 1009.66 1009.58 1009.34 1008.90 1008.46 1007.98 1007.86 1007.46 1007.02 1006.78 1006.58 1006.10 1005.62 1005.22 1004.74 1004.22 1003.90 1003.46 1003.18 1002.70 1002.30 1001.86 1001.30 1001.18 1001.06 1000.90 1000.78 1000.70 1000.66 1000.30 1000.14 1000.10 1000.18 1000.06 999.90 999.90 999.90 999.82 999.98 1000.42 1000.74 1000.90 1000.98 1001.26 1001.46
1013.62 1013.30 1013.10 1013.18 1013.70 1012.82 1011.58 1011.14 1011.14 1011.30 1011.22 1011.18 1010.78 1010.58 1010.46 1010.22 1010.18 1009.94 1009.94 1009.62 1009.30 1009.10 1008.46 1008.14 1007.98 1007.78 1007.22 1006.78 1006.74 1006.58 1006.14 1005.82 1005.38 1004.78 1004.30 1003.90 1003.50 1003.14 1002.78 1002.38 1002.02 1001.62 1001.42 1001.34 1001.26 1001.18 1001.02 1000.70 1000.58 1000.62 1000.58 1000.42 1000.22 1000.06 999.94 999.90 999.94 1000.46 1000.78 1000.94 1001.14 1001.38 1001.42
1014.62 1013.66 1013.34 1013.42 1013.82 1013.46 1012.22 1011.62 1011.26 1011.22 1011.10 1010.86 1010.62 1010.50 1010.38 1010.22 1010.18 1010.18 1010.26 1010.06 1009.78 1009.34 1008.70 1008.26 1008.18 1008.02 1007.54 1006.90 1006.66 1006.62 1006.42 1006.18 1005.62 1005.34 1004.98 1004.54 1004.14 1003.82 1003.46 1003.14 1002.82 1002.50 1002.18 1001.90 1001.78 1001.74 1001.54 1001.18 1001.14 1001.06 1001.06 1000.86 1000.66 1000.42 1000.22 1000.14 1000.14 1000.30 1000.50 1000.90 1001.22 1001.42 1001.58
1014.10 1013.82 1013.86 1013.70 1013.70 1013.58 1012.54 1011.78 1011.34 1010.94 1010.62 1010.58 1010.30 1010.10 1010.06 1010.14 1010.30 1010.26 1010.22 1010.18 1010.18 1009.62 1008.94 1008.42 1008.30 1008.22 1007.62 1006.98 1006.66 1006.58 1006.42 1006.18 1005.74 1005.66 1005.30 1004.74 1004.42 1004.14 1003.86 1003.74 1003.54 1003.30 1003.02 1002.74 1002.54 1002.38 1002.02 1001.78 1001.66 1001.54 1001.50 1001.34 1001.18 1000.86 1000.62 1000.50 1000.38 1000.46 1000.58 1000.82 1001.26 1001.38 1001.38
1015.22 1014.38 1014.02 1013.58 1013.18 1012.62 1011.98 1011.46 1010.94 1010.46 1010.14 1010.06 1010.06 1009.82 1010.10 1010.14 1010.10 1010.14 1010.18 1010.06 1009.86 1009.62 1009.30 1008.82 1008.26 1008.22 1008.02 1007.18 1006.54 1006.50 1006.50 1006.14 1005.98 1005.98 1005.82 1005.14 1004.70 1004.62 1004.46 1004.22 1004.14 1003.98 1003.74 1003.42 1002.98 1002.66 1002.38 1002.18 1002.10 1002.02 1002.02 1001.94 1001.62 1001.38 1001.14 1000.94 1000.78 1000.86 1000.86 1000.94 1001.22 1001.46 1001.54
Wind_Speed
2 2 7 4 11 12 11 12 16 15 7 9 10 4 1 2 7 14 4 8 13 5 12 10 7 8 10 11 13 15 16 13 12 12 13 16 17 18 18 19 20 21 19 20 20 21 20 20 20 22 21 19 20 18 18 19 19 18 19 19 18 17 16
6 5 5 6 9 8 7 14 14 8 8 11 10 11 5 10 12 5 7 15 12 9 11 12 14 8 10 11 12 14 16 12 14 14 14 15 17 19 21 22 21 22 22 23 22 21 23 23 23 22 20 20 19 18 20 20 19 20 19 19 18 17 17
4 8 3 7 10 11 12 10 10 11 11 14 13 7 14 12 14 9 6 8 14 12 11 4 15 19 15 10 10 12 13 12 15 15 16 16 17 16 16 18 16 17 19 19 20 23 25 23 21 21 20 20 19 19 20 22 23 22 20 18 17 15 16
4 5 4 13 11 11 14 6 12 13 6 12 12 14 6 4 11 6 9 9 13 10 11 10 8 12 16 17 11 12 13 14 14 14 15 15 15 16 17 18 18 20 22 23 24 24 24 24 23 22 23 21 23 22 21 20 20 19 19 19 17 17 17
4 7 8 11 8 13 13 10 11 10 11 2 9 8 13 11 9 10 7 8 10 9 5 10 14 12 11 14 12 10 11 12 15 15 14 14 16 16 17 18 18 21 22 24 24 23 22 21 19 19 21 23 22 20 21 22 22 22 21 20 18 16 15
7 3 6 5 5 7 4 4 9 13 14 9 14 15 11 13 10 6 8 12 5 2 5 11 14 13 12 12 13 12 13 13 13 13 14 14 14 16 18 18 19 20 21 22 21 19 17 18 20 23 22 21 22 23 22 22 21 20 21 20 18 17 16
7 8 6 7 7 6 4 5 4 7 6 11 11 11 10 11 14 10 10 9 11 4 1 6 9 11 14 13 13 13 11 11 12 13 15 15 16 18 19 19 19 19 19 19 19 21 22 23 23 24 22 22 23 23 22 21 21 22 22 20 18 16 16
11 14 7 2 1 7 5 4 4 4 1 5 5 5 4 9 11 10 11 13 9 6 6 7 7 9 9 8 7 8 10 10 11 11 11 12 12 13 14 15 15 15 14 16 15 17 18 17 17 20 20 20 20 20 21 21 23 23 21 19 18 17 17
6 8 4 3 5 4 3 1 2 2 4 7 7 7 4 5 11 14 10 15 6 9 4 5 11 6 8 11 9 7 10 7 6 7 6 8 9 9 12 13 14 13 15 18 17 19 18 17 19 19 19 20 20 21 20 21 21 22 20 18 18 18 19
12 13 12 10 6 1 3 2 2 1 6 8 4 7 6 9 7 12 13 10 6 5 3 7 13 14 7 10 7 4 7 8 8 6 5 5 6 8 12 13 13 15 16 16 14 15 14 18 20 18 17 19 20 20 21 20 20 20 19 18 18 18 18
7 5 4 2 4 4 2 3 7 7 2 2 3 3 3 10 1 10 10 7 9 8 6 8 12 12 13 11 6 7 6 6 7 7 7 7 8 9 11 12 13 12 12 14 16 16 17 21 20 18 19 20 19 18 20 20 19 19 18 18 17 18 19
13 10 6 5 5 8 9 9 9 6 6 2 3 5 5 8 5 11 4 5 12 9 6 8 11 11 8 7 6 4 5 6 7 6 6 8 8 10 9 10 11 13 15 15 15 17 19 19 19 18 19 19 20 19 20 19 19 18 16 17 17 18 18
13 12 10 6 7 8 8 10 12 12 8 5 7 9 10 9 7 5 7 5 9 3 9 9 10 7 9 11 6 4 7 8 7 5 6 8 9 10 13 13 14 15 16 15 16 17 18 19 19 20 18 18 16 16 17 17 18 19 18 17 18 18 17
13 12 8 8 11 10 10 10 11 11 11 10 9 11 11 13 11 8 15 15 11 4 7 8 9 10 10 11 9 6 5 6 7 8 8 11 12 12 11 14 17 16 17 17 16 17 16 20 20 20 18 17 18 19 19 20 19 18 16 17 18 18 18
11 11 10 11 11 11 10 10 11 11 10 10 9 10 11 11 12 14 16 16 13 4 2 8 11 9 8 7 7 8 7 7 7 8 11 13 14 16 14 13 16 17 18 17 16 16 18 18 19 20 17 18 19 21 19 19 18 18 18 16 16 17 17
9 6 9 8 7 8 12 14 13 11 9 8 3 3 2 4 4 5 7 10 7 2 9 9 9 6 3 4 7 7 7 9 9 11 13 13 14 16 17 16 15 16 18 16 17 20 21 22 20 18 16 17 18 20 19 20 19 18 18 18 18 16 16
10 5 1 3 6 9 11 15 13 10 8 4 3 3 3 4 4 7 8 7 7 9 9 10 5 3 2 2 3 6 8 9 11 12 14 14 15 16 16 16 15 16 18 19 21 22 22 21 21 22 20 20 19 19 19 18 17 18 18 19 17 16 15
5 1 3 3 5 10 9 5 4 12 9 8 6 4 5 7 6 5 8 10 12 12 11 8 5 2 1 2 3 4 6 9 12 13 13 14 15 15 15 16 17 16 15 15 18 20 20 23 24 21 21 21 17 16 15 14 18 16 16 16 15 15 15
5 5 5 6 10 9 7 5 5 3 5 3 7 8 11 11 13 14 13 13 14 14 12 12 11 8 4 2 4 6 8 9 10 14 14 13 12 13 13 13 15 14 15 14 15 15 16 18 15 15 15 14 14 15 15 17 15 13 14 15 14 15 15
8 6 6 6 6 4 3 3 8 6 2 5 7 7 10 15 13 12 12 14 15 15 15 14 11 9 10 8 4 8 9 10 11 13 13 13 12 12 12 12 12 11 16 16 18 18 17 17 17 17 17 16 17 16 16 16 15 14 15 14 15 14 15
7 6 7 8 6 3 5 5 3 5 2 4 3 7 5 12 12 13 12 15 16 18 16 15 13 8 7 6 5 9 11 12 12 12 13 13 13 12 11 11 10 8 9 10 12 11 13 16 17 18 17 17 17 16 17 16 15 15 15 15 16 16 16
10 8 5 3 4 6 5 5 5 3 5 6 7 1 5 11 14 13 14 15 16 18 18 17 15 9 6 5 4 11 13 13 12 11 11 11 11 9 8 7 8 10 11 12 13 15 15 15 15 14 16 16 15 16 16 15 15 16 17 17 16 16 16
5 10 8 4 5 3 4 3 8 6 5 7 6 5 4 7 12 15 15 16 17 15 16 17 11 5 5 3 7 11 15 12 11 12 11 11 11 10 6 4 11 12 12 14 16 15 16 14 13 13 15 16 16 15 15 16 17 18 18 17 17 17 17
9 9 8 4 3 0 2 8 10 9 7 5 6 9 5 8 11 13 16 15 16 17 18 14 10 11 4 7 8 13 14 10 12 12 13 13 13 12 7 4 4 11 12 14 16 17 18 16 15 15 16 16 17 16 16 17 18 18 18 17 17 16 16
10 12 8 5 2 1 6 11 14 11 6 4 8 6 4 5 8 11 14 12 13 12 14 13 10 9 8 9 12 13 10 13 14 13 12 12 12 11 11 8 3 8 12 15 16 18 15 14 16 17 16 16 15 15 15 17 18 19 17 15 15 14 14
10 9 10 4 1 4 9 11 9 9 3 7 4 5 2 5 8 11 11 12 12 13 13 11 9 10 12 12 11 10 13 12 12 14 14 14 14 12 11 12 8 2 6 8 13 14 13 16 17 16 15 15 14 14 15 18 19 16 13 13 13 13 13
7 8 7 2 3 4 12 14 3 10 2 4 4 2 5 6 8 9 11 10 11 13 13 15 13 13 13 12 12 13 11 13 14 14 15 15 15 15 14 12 11 6 5 6 7 11 14 17 16 16 18 16 15 15 17 16 14 12 12 13 12 13 13
6 8 6 1 4 6 10 7 4 4 5 6 7 4 3 6 7 7 9 10 12 12 11 13 14 13 12 13 16 15 15 15 15 15 16 16 16 15 14 12 10 8 7 6 7 7 9 11 12 13 16 14 14 15 15 10 10 10 11 12 12 13 12
3 1 3 5 5 5 5 5 5 5 4 5 7 6 5 6 6 6 6 10 13 12 13 12 12 12 14 14 13 13 13 13 14 15 14 13 13 14 15 15 12 10 8 9 8 8 6 7 7 9 10 12 13 13 8 9 10 12 12 12 12 12 13
8 5 3 4 6 6 3 4 4 4 3 4 6 8 7 7 5 6 7 10 12 13 13 12 12 11 13 14 15 15 16 15 15 15 16 17 16 16 16 17 16 11 11 11 12 11 10 8 7 6 7 9 10 7 7 8 10 10 11 12 12 13 12
4 4 4 8 10 10 4 4 3 3 2 3 5 6 6 6 7 8 7 9 12 12 13 13 13 14 14 14 13 13 15 18 17 16 15 15 14 15 16 16 15 12 12 12 13 12 12 9 8 8 8 7 7 7 7 7 8 8 10 10 10 10 10
3 4 7 7 12 6 5 3 1 2 3 6 6 6 6 5 6 8 8 9 12 12 11 13 14 14 12 14 14 13 14 15 16 14 14 14 14 14 14 15 16 14 13 13 12 12 10 9 9 8 8 7 7 8 8 7 7 8 8 9 9 10 11
7 5 2 10 12 2 5 3 3 3 6 8 9 6 7 6 6 8 10 8 10 12 12 13 14 16 15 12 13 13 12 14 15 15 15 14 13 13 15 14 14 13 12 12 12 12 10 9 8 8 8 6 6 6 7 8 9 9 8 8 8 8 7
3 5 8 13 8 5 6 9 9 10 10 10 11 9 7 7 8 8 10 11 10 13 12 12 13 15 14 14 13 12 12 13 14 15 16 14 14 13 13 12 13 13 13 12 11 11 9 8 8 8 8 7 6 5 4 3 5 8 10 8 7 6 6
6 10 10 8 8 11 14 13 14 12 11 12 13 12 8 7 8 7 8 10 11 11 12 10 11 14 14 16 14 12 11 12 13 12 15 14 13 13 13 13 15 13 12 12 11 11 9 8 8 8 8 7 7 6 6 4 3 5 5 5 5 5 5
7 8 11 10 8 9 12 14 15 15 13 13 14 12 9 8 8 9 8 7 9 11 12 11 8 11 14 15 13 13 12 10 14 14 14 15 14 13 12 12 13 13 12 12 11 10 9 9 9 9 9 9 8 7 6 5 4 3 3 4 4 4 3
9 11 11 11 12 13 12 13 13 13 12 11 12 12 9 8 7 7 8 8 9 11 10 11 10 8 11 15 14 11 11 11 12 13 12 14 14 12 12 13 13 12 11 9 9 8 8 9 9 9 9 9 8 8 7 5 4 3 3 3 4 4 4
Wind_Direction
174 75 1 295 197 218 183 190 207 212 191 204 227 248 214 351 239 248 169 235 247 314 283 254 229 218 232 229 225 220 224 210 185 196 200 200 199 198 196 197 197 193 188 186 190 191 190 189 190 191 187 183 182 182 182 186 188 186 188 190 191 192 193
128 357 319 265 259 246 133 208 208 152 186 223 221 234 181 222 234 219 171 228 242 204 258 207 220 215 227 219 218 220 226 199 189 204 202 200 198 197 197 197 194 188 186 188 191 193 192 192 190 188 184 180 180 182 183 185 186 188 189 189 192 192 190
300 332 287 244 235 240 228 228 152 178 185 204 206 233 228 218 228 241 207 224 245 223 224 146 210 220 227 218 217 224 218 198 205 207 206 202 198 198 197 197 188 185 190 189 190 193 194 192 188 189 182 181 183 185 186 188 190 190 188 190 191 192 191
334 292 205 222 202 211 236 197 183 206 225 208 196 208 249 245 246 229 227 201 245 217 238 235 230 211 223 227 210 221 221 198 205 208 207 198 194 197 198 197 194 191 190 190 191 193 191 189 186 186 184 187 190 187 184 188 190 188 187 190 189 191 192
261 212 191 216 225 208 196 211 221 188 216 50 224 204 213 211 230 234 231 232 238 235 189 234 237 224 221 224 217 209 212 204 208 206 200 195 193 198 200 197 196 193 193 194 194 191 192 190 184 182 185 189 190 188 189 187 187 187 188 189 189 190 189
224 203 69 90 48 23 343 283 230 208 202 192 202 222 209 225 227 225 214 242 261 221 167 215 226 229 222 218 221 217 218 212 205 208 204 193 192 198 197 197 196 194 194 194 193 189 186 185 185 185 189 187 187 189 188 186 188 188 188 188 190 188 189
264 285 294 309 287 266 271 250 273 350 289 224 207 226 206 213 227 240 243 274 251 230 231 225 246 233 221 216 213 221 226 223 214 207 204 198 195 196 198 198 197 195 191 187 184 180 181 185 186 186 186 187 189 189 186 187 188 191 190 190 187 184 186
268 264 279 94 122 178 176 147 26 343 314 360 318 299 321 223 206 207 224 238 251 217 220 268 241 259 292 305 299 267 239 219 217 214 204 200 197 199 200 201 197 194 183 173 175 176 178 181 182 185 189 188 187 186 187 186 189 188 189 187 185 183 185
215 222 139 130 71 92 74 56 8 0 338 324 300 276 273 264 220 216 216 240 225 237 157 213 269 250 260 270 259 237 260 281 280 269 237 214 200 191 193 193 187 178 174 174 179 180 181 181 183 183 184 184 184 186 186 188 188 186 185 185 185 185 188
192 193 203 200 175 22 340 304 258 330 342 355 334 220 203 241 213 217 227 238 238 257 153 212 235 261 261 254 246 225 231 241 254 268 261 231 213 197 194 188 174 182 185 185 185 183 182 184 187 182 180 182 184 184 187 186 184 183 184 184 185 184 186
281 26 25 329 269 316 289 294 300 306 324 296 253 319 289 234 234 225 231 238 256 237 201 219 224 241 251 258 226 216 219 218 221 228 229 214 204 207 204 188 187 183 181 181 183 183 184 186 187 182 183 184 184 182 182 184 185 183 181 180 181 182 185
266 293 303 326 303 281 286 295 293 295 291 269 244 225 218 22 338 251 172 156 246 243 213 213 219 228 235 242 270 249 206 208 216 224 227 229 210 203 190 188 185 187 191 188 185 183 185 186 185 181 184 184 184 180 179 182 182 180 179 178 178 181 183
273 274 280 278 272 258 266 271 275 282 280 253 248 250 260 272 251 270 330 286 256 265 254 261 264 265 267 265 270 321 338 325 302 290 279 263 237 213 194 188 187 192 191 190 186 184 184 181 179 179 179 180 179 175 177 179 181 181 175 175 177 180 183
273 268 259 252 263 271 262 256 260 260 267 265 253 260 256 244 243 259 272 286 286 314 315 336 321 329 321 315 337 320 310 302 308 296 275 260 255 244 217 194 197 196 195 189 184 180 175 182 179 179 178 177 175 174 178 181 182 181 174 178 177 182 185
266 263 252 244 254 260 267 263 260 258 260 266 261 262 265 258 249 248 256 263 282 269 351 318 306 309 316 311 307 326 330 323 310 294 271 257 247 242 231 211 198 198 195 189 180 175 181 182 177 180 178 176 179 182 181 179 179 179 176 171 177 183 188
277 248 242 234 231 258 271 269 257 247 238 233 232 254 342 281 261 263 247 259 256 33 334 314 285 275 307 325 330 326 324 316 307 289 279 271 256 245 242 230 209 200 195 182 175 181 185 185 181 179 172 173 175 183 181 182 180 178 179 181 184 185 187
266 247 142 267 272 266 258 244 228 220 199 197 172 205 18 26 297 253 233 248 16 318 330 311 278 240 199 310 317 313 304 299 293 284 278 272 263 250 237 232 220 207 196 184 182 185 184 183 183 184 175 175 179 181 176 178 174 179 182 184 184 184 185
271 78 262 258 247 232 234 35 146 184 179 178 154 142 17 39 11 329 318 313 323 330 321 315 303 279 297 341 333 323 321 315 305 298 292 285 275 263 250 236 221 206 193 188 184 181 180 182 183 179 176 179 176 173 165 158 170 176 175 178 177 180 182
264 295 279 225 226 229 78 71 59 195 137 105 130 128 60 33 16 1 346 340 331 321 313 300 288 287 284 297 349 334 332 325 313 306 303 301 294 270 251 231 216 192 178 180 176 173 179 178 168 163 167 169 160 162 158 168 174 168 169 172 174 179 182
273 274 217 211 215 56 228 57 40 27 191 339 157 134 65 37 23 359 344 333 327 321 315 305 296 272 269 269 295 358 341 339 325 315 309 309 308 286 250 220 203 188 186 182 181 179 177 170 174 170 171 172 171 169 167 169 171 172 172 176 178 180 183
237 234 216 225 358 304 191 211 42 11 15 330 257 189 91 40 18 2 340 335 335 332 322 313 302 289 268 253 246 5 347 339 331 320 314 316 311 296 266 215 194 169 167 159 168 150 161 171 169 170 168 169 166 162 166 170 167 170 174 178 182 185 189
232 261 251 225 230 216 174 98 27 324 304 297 286 309 128 30 12 1 349 341 338 334 328 320 314 293 254 258 323 352 343 338 335 334 334 330 329 319 283 201 158 153 154 149 142 159 158 166 164 159 160 161 157 158 167 165 165 170 178 185 186 186 189
240 236 242 210 192 177 69 1 333 329 306 269 257 244 174 27 3 358 350 340 340 334 327 320 316 248 244 322 353 344 331 331 351 348 351 351 350 347 339 215 166 161 149 152 150 149 153 157 153 147 152 156 156 162 164 167 174 180 185 187 187 187 188
243 243 233 225 219 242 345 340 333 333 320 266 228 215 190 7 3 352 348 340 344 342 333 330 29 31 15 351 338 321 319 330 10 358 360 5 4 6 5 6 161 141 133 131 148 153 161 160 155 157 156 161 167 168 170 171 178 185 188 189 187 186 186
236 240 244 273 275 100 356 330 324 329 320 217 207 199 67 336 12 348 342 334 341 335 342 349 21 8 352 327 313 313 322 7 2 358 7 23 22 19 16 21 38 147 152 154 159 165 161 151 156 161 163 165 166 164 165 176 186 191 186 182 179 181 183
234 232 235 243 302 42 349 327 328 356 279 192 175 70 78 25 19 341 332 337 344 338 341 347 346 337 335 333 304 325 5 359 0 0 11 20 32 33 34 31 30 77 151 154 156 155 153 159 163 162 162 163 163 164 171 186 193 185 175 171 171 173 176
236 231 231 231 232 48 2 331 334 17 18 44 12 86 61 44 30 341 338 348 340 343 336 341 337 331 333 331 343 6 350 1 3 2 8 15 26 29 30 32 29 41 73 99 139 155 163 165 165 167 168 166 169 172 186 192 181 175 167 171 173 177 180
220 201 202 131 359 354 359 17 75 46 43 356 10 5 23 39 38 353 331 344 346 339 331 328 336 330 328 334 0 357 360 358 357 3 8 10 15 15 28 40 38 41 65 75 95 129 153 162 164 165 168 166 172 179 188 168 164 161 160 168 168 176 178
284 329 35 35 12 17 17 44 92 96 42 22 10 24 26 28 23 344 340 337 336 337 331 330 336 329 343 353 350 354 356 355 357 4 1 4 10 13 18 25 32 52 62 78 85 80 80 111 132 152 164 165 168 173 151 144 162 166 166 165 170 177 181
309 268 269 10 13 353 65 56 67 74 34 7 359 1 5 19 0 354 347 332 331 332 338 338 332 341 342 355 354 355 5 1 0 1 3 6 10 12 16 18 9 27 63 70 76 77 68 70 89 105 137 152 152 133 134 157 164 166 165 168 174 181 184
313 132 36 15 352 329 172 117 119 88 62 358 343 340 347 346 346 342 341 337 326 330 334 342 332 332 346 355 359 353 6 11 7 3 359 2 3 11 14 14 14 12 24 47 55 64 64 53 70 83 80 84 107 130 148 160 162 157 163 169 176 174 181
338 340 350 360 336 310 147 156 138 284 354 340 325 309 312 328 336 337 331 334 333 334 336 342 338 333 344 2 1 357 3 6 4 359 358 1 0 0 6 12 19 22 23 32 41 49 52 50 56 63 70 83 113 140 153 154 155 160 162 169 175 185 184
300 281 17 354 332 184 153 195 246 309 320 325 310 297 309 322 334 327 327 334 328 326 327 338 342 336 338 2 2 3 2 3 4 0 354 0 2 3 5 5 17 30 23 26 33 42 42 42 48 54 55 55 49 78 122 148 154 163 167 172 172 172 175
17 14 340 345 338 324 297 292 295 305 310 305 301 300 299 315 319 327 324 321 328 315 319 340 345 340 331 344 357 3 7 360 1 3 356 357 360 3 5 4 16 24 30 25 29 32 33 32 40 44 43 38 37 36 38 76 126 132 143 149 148 157 167
320 326 330 332 312 284 274 285 295 292 294 296 293 293 287 283 291 290 292 304 313 312 315 329 346 341 333 335 348 355 9 360 5 8 358 356 358 3 3 7 11 18 23 24 21 22 16 20 32 33 32 24 24 23 20 21 44 109 127 127 128 138 157
315 336 325 318 301 287 287 290 289 290 289 286 283 279 271 266 270 280 283 281 288 295 303 316 344 341 333 333 344 348 355 2 5 11 2 4 8 4 7 13 14 14 14 20 27 21 13 16 23 25 28 21 11 10 9 9 11 37 81 125 126 127 134
332 322 313 309 299 288 283 281 285 288 291 285 283 281 277 275 266 261 271 277 279 284 294 308 326 344 337 334 337 344 344 355 9 10 7 11 8 8 1 7 13 9 7 10 24 20 17 19 24 24 26 15 6 3 359 1 4 41 58 81 106 110 122